Weather History for Istanbul, Turkey

Change the Weather History Date:

Thursday, October 6, 2011

  Actual Average Record
Temperature  
Mean Temperature 68 °F -  
Max Temperature 79 °F 64 °F 84 °F (2003)
Min Temperature 57 °F 53 °F 43 °F (2013)
Cooling Degree Days 3    
Growing Degree Days 18 (Base 50)    
Moisture  
Dew Point 54 °F    
Average Humidity 61    
Maximum Humidity 82    
Minimum Humidity 36    
Precipitation  
Precipitation 0.00 in - - ()
Sea Level Pressure  
Sea Level Pressure 30.08 in    
Wind  
Wind Speed 5 mph ()    
Max Wind Speed 12 mph    
Max Gust Speed -    
Visibility 6.0 miles    
Events      
Averages and records for this station are not official NWS values.
T = Trace of Precipitation, MM = Missing Value Source: Averaged Metar Reports

Daily Weather History Graph

Daily Weather History Graph

Search for Another Location

Airport:

Trip Planner

Search our weather history database for the weather conditions in past years. The results will help you decide how hot, cold, wet, or windy it might be!

Date:

Astronomy

Oct. 06, 2011 Rise Set
Actual Time 7:05 AM EEST 6:39 PM EEST
Civil Twilight 6:38 AM EEST 7:06 PM EEST
Nautical Twilight 6:06 AM EEST 7:38 PM EEST
Astronomical Twilight 5:34 AM EEST 8:10 PM EEST
Moon 3:44 PM EEST (10/6) 1:31 AM EEST (10/6)
Length of Visible Light 12h 28m
Length of Day
11h 33m
Waxing Gibbous, 72% of the Moon is Illuminated
Oct 6
Waxing Gibbous
Oct 12
Full
Oct 20
Last Quarter
Oct 26
New
Nov 2
First Quarter

Hourly Weather History & Observations

Time (EEST) Temp. Dew Point Humidity Pressure Visibility Wind Dir Wind Speed Gust Speed Precip Events Conditions
12:20 AM 66.2 °F 51.8 °F 60% 30.12 in - Variable 5.8 mph - N/A   Clear
12:50 AM 64.4 °F 51.8 °F 64% 30.12 in - NNE 4.6 mph - N/A   Clear
1:20 AM 62.6 °F 51.8 °F 68% 30.12 in - NNE 5.8 mph - N/A   Clear
1:50 AM 62.6 °F 51.8 °F 68% 30.12 in - Variable 2.3 mph - N/A   Clear
2:20 AM 60.8 °F 50.0 °F 68% 30.12 in - NE 4.6 mph - N/A   Clear
2:50 AM 57.2 °F 50.0 °F 77% 30.09 in - NNE 5.8 mph - N/A   Clear
3:00 AM 58 °F 50 °F 67% 30.12 in 6 mi NNE 5.8 mph - -  
3:20 AM 57.2 °F 50.0 °F 77% 30.09 in - North 5.8 mph - N/A   Clear
3:50 AM 57.2 °F 51.8 °F 82% 30.09 in - North 6.9 mph - N/A   Clear
4:20 AM 59.0 °F 51.8 °F 77% 30.09 in - NNW 4.6 mph - N/A   Clear
4:50 AM 60.8 °F 55.4 °F 82% 30.09 in - NNE 5.8 mph - N/A   Clear
5:20 AM 59.0 °F 51.8 °F 77% 30.09 in - North 3.5 mph - N/A   Clear
5:50 AM 60.8 °F 53.6 °F 77% 30.09 in - NNE 4.6 mph - N/A   Clear
6:20 AM 62.6 °F 53.6 °F 72% 30.09 in - NNE 3.5 mph - N/A   Clear
6:50 AM 59.0 °F 51.8 °F 77% 30.09 in - North 4.6 mph - N/A   Clear
7:20 AM 59.0 °F 53.6 °F 82% 30.09 in - North 3.5 mph - N/A   Clear
7:50 AM 60.8 °F 55.4 °F 82% 30.12 in - Variable 4.6 mph - N/A   Clear
8:20 AM 62.6 °F 57.2 °F 82% 30.12 in - Variable 4.6 mph - N/A   Clear
8:50 AM 66.2 °F 53.6 °F 64% 30.12 in - Variable 4.6 mph - N/A   Clear
9:00 AM 66 °F 54 °F 56% 30.13 in 6 mi NE 4.6 mph - -  
9:20 AM 69.8 °F 55.4 °F 60% 30.12 in - Variable 5.8 mph - N/A   Clear
9:50 AM 69.8 °F 53.6 °F 56% 30.12 in - ENE 6.9 mph - N/A   Clear
10:20 AM 71.6 °F 53.6 °F 53% 30.12 in - Variable 6.9 mph - N/A   Clear
10:50 AM 73.4 °F 51.8 °F 47% 30.12 in - Variable 6.9 mph - N/A   Clear
11:20 AM 71.6 °F 55.4 °F 57% 30.12 in - SSE 8.1 mph - N/A   Clear
11:50 AM 73.4 °F 55.4 °F 53% 30.12 in - SSE 6.9 mph - N/A   Clear
12:20 PM 73.4 °F 55.4 °F 53% 30.12 in - SE 8.1 mph - N/A   Clear
12:50 PM 73.4 °F 57.2 °F 57% 30.09 in - South 6.9 mph - N/A   Clear
1:20 PM 73.4 °F 57.2 °F 57% 30.09 in - South 4.6 mph - N/A   Clear
1:50 PM 71.6 °F 57.2 °F 60% 30.09 in - SSW 6.9 mph - N/A   Clear
2:20 PM 71.6 °F 57.2 °F 60% 30.06 in - SW 6.9 mph - N/A   Clear
2:50 PM 73.4 °F 57.2 °F 57% 30.06 in - SW 5.8 mph - N/A   Clear
3:00 PM 73 °F 57 °F 47% 30.08 in 6 mi SW 5.8 mph - -  
3:20 PM 73.4 °F 59.0 °F 61% 30.06 in - SW 6.9 mph - N/A   Clear
3:50 PM 75.2 °F 59.0 °F 57% 30.06 in - SW 5.8 mph - N/A   Clear
4:20 PM 77.0 °F 51.8 °F 41% 30.06 in - Variable 4.6 mph - N/A   Clear
4:50 PM 77.0 °F 50.0 °F 39% 30.04 in - NE 8.1 mph - N/A   Clear
5:20 PM 77.0 °F 48.2 °F 36% 30.04 in - Variable 9.2 mph - N/A   Clear
5:50 PM 75.2 °F 51.8 °F 44% 30.04 in - NNE 11.5 mph - N/A   Clear
6:20 PM 75.2 °F 51.8 °F 44% 30.04 in - NNE 10.4 mph - N/A   Clear
6:50 PM 73.4 °F 51.8 °F 47% 30.04 in - Variable 9.2 mph - N/A   Clear
7:20 PM 71.6 °F 53.6 °F 53% 30.04 in - NNE 10.4 mph - N/A   Clear
7:50 PM 71.6 °F 53.6 °F 53% 30.04 in - NE 9.2 mph - N/A   Clear
8:20 PM 71.6 °F 53.6 °F 53% 30.06 in - NE 6.9 mph - N/A   Clear
8:50 PM 69.8 °F 53.6 °F 56% 30.04 in - NNE 6.9 mph - N/A   Clear
9:00 PM 69 °F 54 °F 48% 30.06 in 6 mi NNE 6.9 mph - -  
9:20 PM 69.8 °F 53.6 °F 56% 30.04 in - NNE 5.8 mph - N/A   Clear
9:50 PM 69.8 °F 55.4 °F 60% 30.04 in - NE 5.8 mph - N/A   Clear
10:20 PM 68.0 °F 53.6 °F 60% 30.04 in - ENE 6.9 mph - N/A   Clear
10:50 PM 68.0 °F 55.4 °F 64% 30.04 in - NE 6.9 mph - N/A   Clear
11:20 PM 68.0 °F 53.6 °F 60% 30.04 in - NE 5.8 mph - N/A   Clear
11:50 PM 68.0 °F 55.4 °F 64% 30.04 in - NE 5.8 mph - N/A   Clear